TimeCST,TemperatureF,Dew PointF,Humidity,Sea Level PressureIn,VisibilityMPH,Wind Direction,Wind SpeedMPH,Gust SpeedMPH,PrecipitationIn,Events,Conditions,WindDirDegrees,DateUTC
12:58 AM,30.4,12.4,47,29.92,10.0,SSE,8.1,-,N/A,,Clear,150,2014-01-30 06:58:00
2:58 AM,28.9,13.6,53,29.87,10.0,SE,10.4,-,N/A,,Clear,140,2014-01-30 08:58:00
3:58 AM,28.9,13.5,52,29.83,10.0,SE,11.5,-,N/A,,Clear,140,2014-01-30 09:58:00
4:58 AM,29.1,12.4,50,29.81,10.0,SSE,12.7,-,N/A,,Clear,150,2014-01-30 10:58:00
5:58 AM,27.7,12.4,53,29.80,10.0,SE,11.5,-,N/A,,Clear,140,2014-01-30 11:58:00
6:58 AM,27.0,12.6,55,29.80,10.0,SE,9.2,-,N/A,,Clear,140,2014-01-30 12:58:00
7:58 AM,27.9,13.5,55,29.78,10.0,SSE,6.9,-,N/A,,Clear,150,2014-01-30 13:58:00
8:58 AM,36.3,15.1,42,29.78,10.0,SSE,13.8,-,N/A,,Clear,160,2014-01-30 14:58:00
9:58 AM,42.8,15.8,34,29.78,10.0,South,18.4,25.3,N/A,,Clear,180,2014-01-30 15:58:00
10:58 AM,48.7,17.6,29,29.75,10.0,South,18.4,-,N/A,,Clear,180,2014-01-30 16:58:00
11:58 AM,55.6,19.6,25,29.74,10.0,SW,17.3,21.9,N/A,,Clear,220,2014-01-30 17:58:00
12:58 PM,59.7,19.9,21,29.72,10.0,SW,13.8,-,N/A,,Clear,220,2014-01-30 18:58:00
1:58 PM,60.8,19.8,21,29.70,10.0,WSW,5.8,-,N/A,,Clear,250,2014-01-30 19:58:00
2:58 PM,61.3,20.3,21,29.70,10.0,NW,2.3,-,N/A,,Clear,310,2014-01-30 20:58:00
3:58 PM,61.3,21.4,22,29.71,10.0,NW,6.9,-,N/A,,Clear,320,2014-01-30 21:58:00
4:58 PM,58.6,23.2,26,29.73,10.0,NNW,5.8,-,N/A,,Clear,340,2014-01-30 22:58:00
5:58 PM,50.2,22.5,34,29.75,10.0,North,5.8,-,N/A,,Clear,10,2014-01-30 23:58:00
6:58 PM,46.9,22.8,39,29.75,10.0,NNE,10.4,-,N/A,,Clear,30,2014-01-31 00:58:00
7:58 PM,48.0,22.1,36,29.76,10.0,NNE,11.5,-,N/A,,Clear,30,2014-01-31 01:58:00
8:58 PM,46.2,22.1,39,29.74,10.0,NNE,12.7,-,N/A,,Clear,30,2014-01-31 02:58:00
9:58 PM,44.8,22.1,41,29.73,10.0,NNE,11.5,-,N/A,,Clear,30,2014-01-31 03:58:00
10:58 PM,43.0,23.7,47,29.72,10.0,NE,10.4,-,N/A,,Clear,40,2014-01-31 04:58:00
11:58 PM,40.1,25.2,55,29.71,10.0,NE,10.4,-,N/A,,Clear,40,2014-01-31 05:58:00